ProjectID,Date,Electric Generation,Electric Utility Import,Facility Electric Load
,YYYY-MM-DD,kW,kW,kW
96,2012-08-15,0.0,,0.0
96,2012-08-16,839.7194166666667,,839.7194166666667
96,2012-08-17,827.4507916666666,,827.4507916666666
96,2012-08-18,1205.748625,,1205.748625
96,2012-08-19,1172.1916666666666,,1172.1916666666666
96,2012-08-20,1154.2455833333333,,1154.2455833333333
96,2012-08-21,1140.6042083333334,,1140.6042083333334
96,2012-08-22,1157.0033333333333,,1157.0033333333333
96,2012-08-23,1182.2131666666667,,1182.2131666666667
96,2012-08-24,1157.334,,1157.334
96,2012-08-25,207.13195833333336,,207.13195833333336
96,2012-08-26,0.0,,0.0
96,2012-08-27,6.833333333333333,,6.833333333333333
96,2012-08-28,332.64691666666664,,332.64691666666664
96,2012-08-29,564.412125,,564.412125
96,2012-08-30,957.6660416666667,,957.6660416666667
96,2012-08-31,884.0297916666667,,884.0297916666667
96,2012-09-01,1157.5083750000001,,1157.5083750000001
96,2012-09-02,1164.3882083333333,,1164.3882083333333
96,2012-09-03,1162.9346666666668,,1162.9346666666668
96,2012-09-04,1122.9201666666665,,1122.9201666666665
96,2012-09-05,1091.9097916666667,,1091.9097916666667
96,2012-09-06,1057.25,,1057.25
96,2012-09-07,990.0909166666667,,990.0909166666667
96,2012-09-08,1072.5840416666667,,1072.5840416666667
96,2012-09-09,1108.898625,,1108.898625
96,2012-09-10,1065.1159583333333,,1065.1159583333333
96,2012-09-11,649.9052916666667,,649.9052916666667
96,2012-09-12,0.0,,0.0
96,2012-09-13,0.0,,0.0
96,2012-09-14,0.006833333333333334,,0.006833333333333334
96,2012-09-15,16.631833333333333,,16.631833333333333
96,2012-09-16,0.0,,0.0
96,2012-09-17,430.83129166666663,,430.83129166666663
96,2012-09-18,853.7812083333333,,853.7812083333333
96,2012-09-19,1178.676375,,1178.676375
96,2012-09-20,380.007625,,380.007625
96,2012-09-21,0.0,,0.0
96,2012-09-22,0.0,,0.0
96,2012-09-23,0.0,,0.0
96,2012-09-24,0.0,,0.0
96,2012-09-25,0.0,,0.0
96,2012-09-26,0.0,,0.0
96,2012-09-27,0.0,,0.0
96,2012-09-28,96.64791666666667,,96.64791666666667
96,2012-09-29,1010.4472916666667,,1010.4472916666667
96,2012-09-30,1073.0202083333334,,1073.0202083333334
96,2012-10-01,0.0,,0.0
96,2012-10-02,0.0,,0.0
96,2012-10-03,0.0,,0.0
96,2012-10-04,0.0,,0.0
96,2012-10-05,132.64358333333334,,132.64358333333334
96,2012-10-06,0.0,,0.0
96,2012-10-07,0.0,,0.0
96,2012-10-08,0.0,,0.0
96,2012-10-09,0.0,,0.0
96,2012-10-10,0.0,,0.0
96,2012-10-11,0.0,,0.0
96,2012-10-12,303.53908333333334,,303.53908333333334
96,2012-10-13,1155.934,,1155.934
96,2012-10-14,1163.9090416666666,,1163.9090416666666
96,2012-10-15,1123.3695,,1123.3695
96,2012-10-16,1164.2750833333332,,1164.2750833333332
96,2012-10-17,1129.5924166666666,,1129.5924166666666
96,2012-10-18,1158.1750416666666,,1158.1750416666666
96,2012-10-19,991.500125,,991.500125
96,2012-10-20,1157.3985,,1157.3985
96,2012-10-21,1177.02225,,1177.02225
96,2012-10-22,1204.811875,,1204.811875
96,2012-10-23,1243.1549583333333,,1243.1549583333333
96,2012-10-24,997.3022083333334,,997.3022083333334
96,2012-10-25,785.5077916666668,,785.5077916666668
96,2012-10-26,1148.967375,,1148.967375
96,2012-10-27,1221.8846666666666,,1221.8846666666666
96,2012-10-28,1231.1222916666668,,1231.1222916666668
96,2012-10-29,1011.3948333333333,,1011.3948333333333
96,2012-10-30,809.7251666666666,,809.7251666666666
96,2012-10-31,942.530625,,942.530625
96,2012-11-01,1093.28675,,1093.28675
96,2012-11-02,1148.8764583333334,,1148.8764583333334
96,2012-11-03,1192.0361249999999,,1192.0361249999999
96,2012-11-04,1190.2673333333335,,1190.2673333333335
96,2012-11-05,1173.2437916666665,,1173.2437916666665
96,2012-11-06,1192.8965833333334,,1192.8965833333334
96,2012-11-07,1156.0086666666666,,1156.0086666666666
96,2012-11-08,1193.0367916666667,,1193.0367916666667
96,2012-11-09,1244.59725,,1244.59725
96,2012-11-10,1224.95975,,1224.95975
96,2012-11-11,1218.68675,,1218.68675
96,2012-11-12,1173.6360416666666,,1173.6360416666666
96,2012-11-13,1177.7659583333334,,1177.7659583333334
96,2012-11-14,1179.819375,,1179.819375
96,2012-11-15,1180.6945,,1180.6945
96,2012-11-16,1175.3298333333335,,1175.3298333333335
96,2012-11-17,1157.2472500000001,,1157.2472500000001
96,2012-11-18,1113.5535,,1113.5535
96,2012-11-19,1099.2722916666667,,1099.2722916666667
96,2012-11-20,1066.9125000000001,,1066.9125000000001
96,2012-11-21,1052.0554583333333,,1052.0554583333333
96,2012-11-22,1192.1687916666667,,1192.1687916666667
96,2012-11-23,1103.9243333333334,,1103.9243333333334
96,2012-11-24,1091.0249583333332,,1091.0249583333332
96,2012-11-25,1172.5729583333334,,1172.5729583333334
96,2012-11-26,1196.6097083333334,,1196.6097083333334
96,2012-11-27,1192.4013333333335,,1192.4013333333335
96,2012-11-28,1193.808375,,1193.808375
96,2012-11-29,1193.4222083333334,,1193.4222083333334
96,2012-11-30,1200.6679583333332,,1200.6679583333332
96,2012-12-01,1211.4062083333333,,1211.4062083333333
96,2012-12-02,1209.268,,1209.268
96,2012-12-03,1224.2854583333333,,1224.2854583333333
96,2012-12-04,1234.310375,,1234.310375
96,2012-12-05,1250.8757083333333,,1250.8757083333333
96,2012-12-06,1329.1243333333334,,1329.1243333333334
96,2012-12-07,975.0111666666667,,975.0111666666667
96,2012-12-08,916.730625,,916.730625
96,2012-12-09,952.3312916666667,,952.3312916666667
96,2012-12-10,698.3806666666666,,698.3806666666666
96,2012-12-11,0.0,,0.0
96,2012-12-12,510.70575,,510.70575
96,2012-12-13,577.8428749999999,,577.8428749999999
96,2012-12-14,0.0,,0.0
96,2012-12-15,0.0,,0.0
96,2012-12-16,0.0,,0.0
96,2012-12-17,0.0,,0.0
96,2012-12-18,0.0,,0.0
96,2012-12-19,0.0,,0.0
96,2012-12-20,0.0,,0.0
96,2012-12-21,0.0,,0.0
96,2012-12-22,0.0,,0.0
96,2012-12-23,0.0,,0.0
96,2012-12-24,0.0,,0.0
96,2012-12-25,0.0,,0.0
96,2012-12-26,0.0,,0.0
96,2012-12-27,0.0,,0.0
96,2012-12-28,0.0,,0.0
96,2012-12-29,218.02650000000003,,218.02650000000003
96,2012-12-30,353.50420833333334,,353.50420833333334
96,2012-12-31,414.5720416666666,,414.5720416666666
96,2013-01-01,0.0,,0.0
96,2013-01-02,399.3915,,399.3915
96,2013-01-03,608.2981666666667,,608.2981666666667
96,2013-01-04,590.318375,,590.318375
96,2013-01-05,449.0733333333333,,449.0733333333333
96,2013-01-06,0.0,,0.0
96,2013-01-07,0.0,,0.0
96,2013-01-08,437.49537499999997,,437.49537499999997
96,2013-01-09,419.31654166666664,,419.31654166666664
96,2013-01-10,663.9389583333333,,663.9389583333333
96,2013-01-11,836.632125,,836.632125
96,2013-01-12,947.3561666666666,,947.3561666666666
96,2013-01-13,980.0449166666667,,980.0449166666667
96,2013-01-14,925.5460416666666,,925.5460416666666
96,2013-01-15,683.0499583333334,,683.0499583333334
96,2013-01-16,610.5849583333334,,610.5849583333334
96,2013-01-17,943.3915833333334,,943.3915833333334
96,2013-01-18,1007.9384583333334,,1007.9384583333334
96,2013-01-19,1032.8389583333333,,1032.8389583333333
96,2013-01-20,868.2899166666666,,868.2899166666666
96,2013-01-21,912.7635,,912.7635
96,2013-01-22,394.613875,,394.613875
96,2013-01-23,273.24720833333333,,273.24720833333333
96,2013-01-24,553.8821666666666,,553.8821666666666
96,2013-01-25,156.64275,,156.64275
96,2013-01-26,525.9701249999999,,525.9701249999999
96,2013-01-27,789.1930416666668,,789.1930416666668
96,2013-01-28,0.0007499999999999999,,0.0007499999999999999
96,2013-01-29,476.90766666666667,,476.90766666666667
96,2013-01-30,1044.0430833333332,,1044.0430833333332
96,2013-01-31,1112.55,,1112.55
96,2013-02-01,983.7992083333334,,983.7992083333334
96,2013-02-02,519.4961666666667,,519.4961666666667
96,2013-02-03,1029.663875,,1029.663875
96,2013-02-04,647.1909166666667,,647.1909166666667
96,2013-02-05,0.0,,0.0
96,2013-02-06,419.4313333333334,,419.4313333333334
96,2013-02-07,1074.931875,,1074.931875
96,2013-02-08,67.12841666666667,,67.12841666666667
96,2013-02-09,0.0,,0.0
96,2013-02-10,0.0,,0.0
96,2013-02-11,0.0,,0.0
96,2013-02-12,0.0,,0.0
96,2013-02-13,328.7581666666667,,328.7581666666667
96,2013-02-14,697.2265000000001,,697.2265000000001
96,2013-02-15,307.857,,307.857
96,2013-02-16,216.52079166666667,,216.52079166666667
96,2013-02-17,0.0,,0.0
96,2013-02-18,278.58875,,278.58875
96,2013-02-19,715.0530833333333,,715.0530833333333
96,2013-02-20,921.5990833333334,,921.5990833333334
96,2013-02-21,940.7947916666667,,940.7947916666667
96,2013-02-22,1083.9352083333333,,1083.9352083333333
96,2013-02-23,936.8944166666666,,936.8944166666666
96,2013-02-24,1149.8562083333334,,1149.8562083333334
96,2013-02-25,1030.8208333333334,,1030.8208333333334
96,2013-02-26,985.1042083333333,,985.1042083333333
96,2013-02-27,425.314625,,425.314625
96,2013-02-28,696.8065,,696.8065
96,2013-03-01,1266.0614166666667,,1266.0614166666667
96,2013-03-02,1375.0791666666667,,1375.0791666666667
96,2013-03-03,1320.50075,,1320.50075
96,2013-03-04,1351.7625833333334,,1351.7625833333334
96,2013-03-05,1417.0749166666667,,1417.0749166666667
96,2013-03-06,767.1372083333334,,767.1372083333334
96,2013-03-07,1316.8644583333332,,1316.8644583333332
96,2013-03-08,1392.9236666666666,,1392.9236666666666
96,2013-03-09,1342.803625,,1342.803625
96,2013-03-10,1175.497875,,1175.497875
96,2013-03-11,1311.694375,,1311.694375
96,2013-03-12,1383.7875000000001,,1383.7875000000001
96,2013-03-13,1276.2159166666668,,1276.2159166666668
96,2013-03-14,1084.5750416666667,,1084.5750416666667
96,2013-03-15,1216.2291666666667,,1216.2291666666667
96,2013-03-16,1137.4021666666665,,1137.4021666666665
96,2013-03-17,1131.4937083333332,,1131.4937083333332
96,2013-03-18,1113.3047083333333,,1113.3047083333333
96,2013-03-19,1177.1554583333334,,1177.1554583333334
96,2013-03-20,974.0208333333334,,974.0208333333334
96,2013-03-21,1316.0174166666668,,1316.0174166666668
96,2013-03-22,810.4237083333334,,810.4237083333334
96,2013-03-23,688.21675,,688.21675
96,2013-03-24,678.5987916666667,,678.5987916666667
96,2013-03-25,534.5924166666667,,534.5924166666667
96,2013-03-26,1317.058375,,1317.058375
96,2013-03-27,1336.0091666666667,,1336.0091666666667
96,2013-03-28,1393.5583749999998,,1393.5583749999998
96,2013-03-29,1397.1916666666666,,1397.1916666666666
96,2013-03-30,1396.9750416666666,,1396.9750416666666
96,2013-03-31,1397.422125,,1397.422125
96,2013-04-01,58.22083333333333,,58.22083333333333
96,2013-04-02,0.0,,0.0
96,2013-04-03,0.0,,0.0
96,2013-04-04,0.0,,0.0
96,2013-04-05,0.0,,0.0
96,2013-04-06,0.0,,0.0
96,2013-04-07,0.0,,0.0
96,2013-04-08,1012.111375,,1012.111375
96,2013-04-09,1136.407625,,1136.407625
96,2013-04-10,821.046375,,821.046375
96,2013-04-11,586.9743333333333,,586.9743333333333
96,2013-04-12,757.3979166666667,,757.3979166666667
96,2013-04-13,1068.2361250000001,,1068.2361250000001
96,2013-04-14,1136.816125,,1136.816125
96,2013-04-15,1301.8700000000001,,1301.8700000000001
96,2013-04-16,1135.71175,,1135.71175
96,2013-04-17,49.099291666666666,,49.099291666666666
96,2013-04-18,1112.8451666666667,,1112.8451666666667
96,2013-04-19,1200.3224166666666,,1200.3224166666666
96,2013-04-20,1236.5999583333335,,1236.5999583333335
96,2013-04-21,1233.6854583333334,,1233.6854583333334
96,2013-04-22,1114.1427916666667,,1114.1427916666667
96,2013-04-23,1073.6020833333334,,1073.6020833333334
96,2013-04-24,1014.7262916666667,,1014.7262916666667
96,2013-04-25,1036.2027083333335,,1036.2027083333335
96,2013-04-26,988.0034166666666,,988.0034166666666
96,2013-04-27,766.9645833333334,,766.9645833333334
96,2013-04-28,968.67225,,968.67225
96,2013-04-29,487.80625000000003,,487.80625000000003
96,2013-04-30,885.00225,,885.00225
96,2013-05-01,943.6745416666666,,943.6745416666666
96,2013-05-02,1229.9493333333332,,1229.9493333333332
96,2013-05-03,1392.7756666666667,,1392.7756666666667
96,2013-05-04,1376.9638333333332,,1376.9638333333332
96,2013-05-05,1397.2972916666668,,1397.2972916666668
96,2013-05-06,1388.2440416666668,,1388.2440416666668
96,2013-05-07,1397.1118333333334,,1397.1118333333334
96,2013-05-08,1397.1026666666667,,1397.1026666666667
96,2013-05-09,1315.6277499999999,,1315.6277499999999
96,2013-05-10,1397.4053333333334,,1397.4053333333334
96,2013-05-11,1397.2145,,1397.2145
96,2013-05-12,1397.37925,,1397.37925
96,2013-05-13,1397.0694583333334,,1397.0694583333334
96,2013-05-14,1397.1743333333334,,1397.1743333333334
96,2013-05-15,1213.0468333333333,,1213.0468333333333
96,2013-05-16,1356.486375,,1356.486375
96,2013-05-17,1397.3423333333333,,1397.3423333333333
96,2013-05-18,1396.7500416666664,,1396.7500416666664
96,2013-05-19,1396.7604166666667,,1396.7604166666667
96,2013-05-20,1396.684,,1396.684
96,2013-05-21,1220.5680833333333,,1220.5680833333333
96,2013-05-22,1274.648625,,1274.648625
96,2013-05-23,1083.0757083333333,,1083.0757083333333
96,2013-05-24,1251.461125,,1251.461125
96,2013-05-25,1388.1340833333334,,1388.1340833333334
96,2013-05-26,1341.7694583333334,,1341.7694583333334
96,2013-05-27,1252.4715416666666,,1252.4715416666666
96,2013-05-28,1096.20975,,1096.20975
96,2013-05-29,1036.4194583333333,,1036.4194583333333
96,2013-05-30,1050.7742916666666,,1050.7742916666666
96,2013-05-31,1012.716,,1012.716
96,2013-06-01,1073.434125,,1073.434125
96,2013-06-02,1122.0902083333333,,1122.0902083333333
96,2013-06-03,1061.168625,,1061.168625
96,2013-06-04,791.3940833333332,,791.3940833333332
96,2013-06-05,1170.766625,,1170.766625
96,2013-06-06,864.4749166666667,,864.4749166666667
96,2013-06-07,1397.5534166666666,,1397.5534166666666
96,2013-06-08,1276.7410833333333,,1276.7410833333333
96,2013-06-09,1222.2562916666668,,1222.2562916666668
96,2013-06-10,1389.5131250000002,,1389.5131250000002
96,2013-06-11,1374.5840416666667,,1374.5840416666667
96,2013-06-12,1359.7368333333334,,1359.7368333333334
96,2013-06-13,1175.822375,,1175.822375
96,2013-06-14,1273.2459166666665,,1273.2459166666665
96,2013-06-15,1221.908375,,1221.908375
96,2013-06-16,1302.2174166666666,,1302.2174166666666
96,2013-06-17,1284.668125,,1284.668125
96,2013-06-18,625.670125,,625.670125
96,2013-06-19,368.68012500000003,,368.68012500000003
96,2013-06-20,1199.9347916666668,,1199.9347916666668
96,2013-06-21,1292.3307083333334,,1292.3307083333334
96,2013-06-22,1344.833375,,1344.833375
96,2013-06-23,1307.5409166666666,,1307.5409166666666
96,2013-06-24,1251.8299166666668,,1251.8299166666668
96,2013-06-25,1326.1490833333335,,1326.1490833333335
96,2013-06-26,1378.8166250000002,,1378.8166250000002
96,2013-06-27,1282.8861666666667,,1282.8861666666667
96,2013-06-28,1311.5277083333333,,1311.5277083333333
96,2013-06-29,1088.4285833333333,,1088.4285833333333
96,2013-06-30,945.2215833333333,,945.2215833333333
96,2013-07-01,949.8208333333333,,949.8208333333333
96,2013-07-02,963.9784583333334,,963.9784583333334
96,2013-07-03,1127.5174166666668,,1127.5174166666668
96,2013-07-04,1273.8159583333334,,1273.8159583333334
96,2013-07-05,1241.6014166666666,,1241.6014166666666
96,2013-07-06,1164.0812916666666,,1164.0812916666666
96,2013-07-07,1142.7638333333332,,1142.7638333333332
96,2013-07-08,1102.2694583333334,,1102.2694583333334
96,2013-07-09,834.5867916666666,,834.5867916666666
96,2013-07-10,1270.3562916666667,,1270.3562916666667
96,2013-07-11,1396.4686666666666,,1396.4686666666666
96,2013-07-12,1393.1812499999999,,1393.1812499999999
96,2013-07-13,1273.7840833333332,,1273.7840833333332
96,2013-07-14,1396.3604166666667,,1396.3604166666667
96,2013-07-15,1396.8388750000001,,1396.8388750000001
96,2013-07-16,1355.5555,,1355.5555
96,2013-07-17,1329.82925,,1329.82925
96,2013-07-18,1395.742375,,1395.742375
96,2013-07-19,1392.7437499999999,,1392.7437499999999
96,2013-07-20,1282.4598333333333,,1282.4598333333333
96,2013-07-21,1396.6521666666667,,1396.6521666666667
96,2013-07-22,1189.95975,,1189.95975
96,2013-07-23,1309.9264166666667,,1309.9264166666667
96,2013-07-24,1396.6014166666666,,1396.6014166666666
96,2013-07-25,1254.0989583333333,,1254.0989583333333
96,2013-07-26,1396.9750416666666,,1396.9750416666666
96,2013-07-27,1396.9791666666667,,1396.9791666666667
96,2013-07-28,1396.5568333333333,,1396.5568333333333
96,2013-07-29,1312.9410833333334,,1312.9410833333334
96,2013-07-30,1386.1562083333336,,1386.1562083333336
96,2013-07-31,1079.1798333333334,,1079.1798333333334
96,2013-08-01,472.3499166666666,,472.3499166666666
96,2013-08-02,1257.1909166666667,,1257.1909166666667
96,2013-08-03,1123.3280416666666,,1123.3280416666666
96,2013-08-04,1276.3465416666666,,1276.3465416666666
96,2013-08-05,1244.002125,,1244.002125
96,2013-08-06,1273.1507083333333,,1273.1507083333333
96,2013-08-07,1303.7229583333333,,1303.7229583333333
96,2013-08-08,1396.5097083333333,,1396.5097083333333
96,2013-08-09,1396.742375,,1396.742375
96,2013-08-10,1395.5728333333334,,1395.5728333333334
96,2013-08-11,1396.999375,,1396.999375
96,2013-08-12,1396.8117083333334,,1396.8117083333334
96,2013-08-13,1344.917375,,1344.917375
96,2013-08-14,1166.930625,,1166.930625
96,2013-08-15,1153.208375,,1153.208375
96,2013-08-16,1209.6854166666667,,1209.6854166666667
96,2013-08-17,1180.622875,,1180.622875
96,2013-08-18,1106.1860416666666,,1106.1860416666666
96,2013-08-19,1207.535125,,1207.535125
96,2013-08-20,1147.96675,,1147.96675
96,2013-08-21,1206.499375,,1206.499375
96,2013-08-22,1073.4638750000001,,1073.4638750000001
96,2013-08-23,1222.7957916666667,,1222.7957916666667
96,2013-08-24,1088.6450833333333,,1088.6450833333333
96,2013-08-25,1016.5770833333332,,1016.5770833333332
96,2013-08-26,1004.5167083333334,,1004.5167083333334
96,2013-08-27,1158.0374583333335,,1158.0374583333335
96,2013-08-28,1300.127125,,1300.127125
96,2013-08-29,1285.1257083333333,,1285.1257083333333
96,2013-08-30,1239.5832916666666,,1239.5832916666666
96,2013-08-31,1184.6111666666668,,1184.6111666666668
96,2013-09-01,1038.7993333333334,,1038.7993333333334
96,2013-09-02,1207.5125416666667,,1207.5125416666667
96,2013-09-03,1203.75475,,1203.75475
96,2013-09-04,386.24654166666664,,386.24654166666664
96,2013-09-05,0.0,,0.0
96,2013-09-06,507.45283333333333,,507.45283333333333
96,2013-09-07,1389.8229583333332,,1389.8229583333332
96,2013-09-08,1396.6797916666667,,1396.6797916666667
96,2013-09-09,1396.5625,,1396.5625
96,2013-09-10,1378.4263333333336,,1378.4263333333336
96,2013-09-11,1333.27925,,1333.27925
96,2013-09-12,1197.7481666666665,,1197.7481666666665
96,2013-09-13,1396.8881666666666,,1396.8881666666666
96,2013-09-14,1396.8805,,1396.8805
96,2013-09-15,1396.9666666666665,,1396.9666666666665
96,2013-09-16,1361.4236250000001,,1361.4236250000001
96,2013-09-17,1286.5200833333333,,1286.5200833333333
96,2013-09-18,1157.008125,,1157.008125
96,2013-09-19,1364.0042083333333,,1364.0042083333333
96,2013-09-20,1330.2827083333334,,1330.2827083333334
96,2013-09-21,1384.7409583333335,,1384.7409583333335
96,2013-09-22,1337.77425,,1337.77425
96,2013-09-23,1370.2107916666666,,1370.2107916666666
96,2013-09-24,1280.320375,,1280.320375
96,2013-09-25,1346.831,,1346.831
96,2013-09-26,1280.885875,,1280.885875
96,2013-09-27,1385.4527916666666,,1385.4527916666666
96,2013-09-28,1396.8922916666668,,1396.8922916666668
96,2013-09-29,1396.7423333333334,,1396.7423333333334
96,2013-09-30,1396.3700833333332,,1396.3700833333332
96,2013-10-01,1396.8166666666666,,1396.8166666666666
96,2013-10-02,1273.382,,1273.382
96,2013-10-03,1396.613875,,1396.613875
96,2013-10-04,1396.5570833333334,,1396.5570833333334
96,2013-10-05,1396.5625,,1396.5625
96,2013-10-06,1396.189625,,1396.189625
96,2013-10-07,1339.6249583333333,,1339.6249583333333
96,2013-10-08,1174.9465,,1174.9465
96,2013-10-09,1316.101375,,1316.101375
96,2013-10-10,1396.9048333333333,,1396.9048333333333
96,2013-10-11,1396.8145416666666,,1396.8145416666666
96,2013-10-12,1396.9999583333336,,1396.9999583333336
96,2013-10-13,1396.8944166666668,,1396.8944166666668
96,2013-10-14,1396.5542500000001,,1396.5542500000001
96,2013-10-15,1246.1562083333333,,1246.1562083333333
96,2013-10-16,1319.327125,,1319.327125
96,2013-10-17,1339.2514166666667,,1339.2514166666667
96,2013-10-18,1329.182,,1329.182
96,2013-10-19,1227.2102916666665,,1227.2102916666665
96,2013-10-20,1307.3756666666666,,1307.3756666666666
96,2013-10-21,1334.8285833333332,,1334.8285833333332
96,2013-10-22,1077.5619166666668,,1077.5619166666668
96,2013-10-23,1369.5236666666667,,1369.5236666666667
96,2013-10-24,1396.770125,,1396.770125
96,2013-10-25,1396.7008333333333,,1396.7008333333333
96,2013-10-26,1396.625,,1396.625
96,2013-10-27,1396.634625,,1396.634625
96,2013-10-28,905.413375,,905.413375
96,2013-10-29,1179.1749166666666,,1179.1749166666666
96,2013-10-30,1335.5596666666668,,1335.5596666666668
96,2013-10-31,1192.608625,,1192.608625
96,2013-11-01,382.3151666666667,,382.3151666666667
96,2013-11-02,1293.5444583333333,,1293.5444583333333
96,2013-11-03,1396.4144583333334,,1396.4144583333334
96,2013-11-04,1384.29025,,1384.29025
96,2013-11-05,57.736124999999994,,57.736124999999994
96,2013-11-06,1212.909625,,1212.909625
96,2013-11-07,1396.6368750000001,,1396.6368750000001
96,2013-11-08,1396.8465416666668,,1396.8465416666668
96,2013-11-09,1396.5707916666668,,1396.5707916666668
96,2013-11-10,1396.9465833333334,,1396.9465833333334
96,2013-11-11,1391.9459583333335,,1391.9459583333335
96,2013-11-12,1396.798,,1396.798
96,2013-11-13,1396.1118333333334,,1396.1118333333334
96,2013-11-14,1396.7542083333335,,1396.7542083333335
96,2013-11-15,1364.9319166666667,,1364.9319166666667
96,2013-11-16,1396.4437500000001,,1396.4437500000001
96,2013-11-17,1382.8964583333334,,1382.8964583333334
96,2013-11-18,1230.83125,,1230.83125
96,2013-11-19,1237.3929583333334,,1237.3929583333334
96,2013-11-20,1212.2944166666666,,1212.2944166666666
96,2013-11-21,1162.9804166666665,,1162.9804166666665
96,2013-11-22,74.00220833333334,,74.00220833333334
96,2013-11-23,670.9770833333333,,670.9770833333333
96,2013-11-24,1186.051375,,1186.051375
96,2013-11-25,1155.9861250000001,,1155.9861250000001
96,2013-11-26,1081.0763333333332,,1081.0763333333332
96,2013-11-27,1158.5596666666668,,1158.5596666666668
96,2013-11-28,1392.9506666666666,,1392.9506666666666
96,2013-11-29,1321.203375,,1321.203375
96,2013-11-30,738.0810833333334,,738.0810833333334
96,2013-12-01,1267.469375,,1267.469375
96,2013-12-02,1354.44725,,1354.44725
96,2013-12-03,1396.5764583333332,,1396.5764583333332
96,2013-12-04,1396.717375,,1396.717375
96,2013-12-05,531.9065416666666,,531.9065416666666
96,2013-12-06,0.0,,0.0
96,2013-12-07,430.40925,,430.40925
96,2013-12-08,1396.553541666667,,1396.553541666667
96,2013-12-09,1396.8472083333334,,1396.8472083333334
96,2013-12-10,1396.9119166666667,,1396.9119166666667
96,2013-12-11,1396.80925,,1396.80925
96,2013-12-12,1350.736875,,1350.736875
96,2013-12-13,1313.8923333333335,,1313.8923333333335
96,2013-12-14,1147.7486666666666,,1147.7486666666666
96,2013-12-15,1049.9209166666667,,1049.9209166666667
96,2013-12-16,979.8417083333334,,979.8417083333334
96,2013-12-17,995.3805416666668,,995.3805416666668
96,2013-12-18,723.6054583333333,,723.6054583333333
96,2013-12-19,972.6715833333333,,972.6715833333333
96,2013-12-20,1003.8041666666667,,1003.8041666666667
96,2013-12-21,1112.9202083333332,,1112.9202083333332
96,2013-12-22,161.02120833333333,,161.02120833333333
96,2013-12-23,1256.0782916666667,,1256.0782916666667
96,2013-12-24,1221.9853333333333,,1221.9853333333333
96,2013-12-25,1171.0764166666665,,1171.0764166666665
96,2013-12-26,1120.1189166666666,,1120.1189166666666
96,2013-12-27,1095.0778333333333,,1095.0778333333333
96,2013-12-28,1003.4215833333333,,1003.4215833333333
96,2013-12-29,854.258375,,854.258375
96,2013-12-30,660.6354166666666,,660.6354166666666
96,2013-12-31,760.9444583333334,,760.9444583333334
96,2014-01-01,691.9129583333333,,691.9129583333333
96,2014-01-02,528.1875,,528.1875
96,2014-01-03,586.69025,,586.69025
96,2014-01-04,755.0145833333332,,755.0145833333332
96,2014-01-05,691.1010416666667,,691.1010416666667
96,2014-01-06,695.7771666666666,,695.7771666666666
96,2014-01-07,785.454625,,785.454625
96,2014-01-08,1013.6464583333333,,1013.6464583333333